| time (UTC) | temp F | wind direction | speed MPH | gust MPH | rain 1hr in | rain 24hr in | rain mn in | humidity % | barometer mb |
| 20260507143011 | 76 | 325 | 7.0 | 13.0 | 0.00 | 0.00 | 0.00 | 11 | 1017.4 |
| 20260507141011 | 74 | 306 | 2.0 | 12.0 | 0.00 | 0.00 | 0.00 | 13 | 1017.4 |
| 20260507140512 | 73 | 302 | 1.0 | 9.0 | 0.00 | 0.00 | 0.00 | 14 | 1017.4 |
| 20260507140012 | 72 | 78 | 2.0 | 9.0 | 0.00 | 0.00 | 0.00 | 14 | 1017.4 |
| 20260507135511 | 71 | 184 | 1.0 | 5.0 | 0.00 | 0.00 | 0.00 | 19 | 1017.4 |
| 20260507135011 | 71 | 89 | 1.0 | 5.0 | 0.00 | 0.00 | 0.00 | 21 | 1017.4 |
| 20260507134511 | 71 | 70 | 1.0 | 4.0 | 0.00 | 0.00 | 0.00 | 22 | 1017.4 |
| 20260507133511 | 69 | 76 | 2.0 | 3.0 | 0.00 | 0.00 | 0.00 | 23 | 1017.3 |
| 20260507133011 | 69 | 61 | 1.0 | 4.0 | 0.00 | 0.00 | 0.00 | 25 | 1017.3 |
| 20260507132511 | 70 | 140 | 0.0 | 4.0 | 0.00 | 0.00 | 0.00 | 23 | 1017.1 |
| 20260507132011 | 70 | 274 | 2.0 | 4.0 | 0.00 | 0.00 | 0.00 | 23 | 1017.1 |
| 20260507131511 | 70 | 150 | 3.0 | 4.0 | 0.00 | 0.00 | 0.00 | 22 | 1017.1 |
| 20260507130511 | 69 | 138 | 2.0 | 7.0 | 0.00 | 0.00 | 0.00 | 22 | 1017.2 |
| 20260507125510 | 68 | 340 | 3.0 | 4.0 | 0.00 | 0.00 | 0.00 | 25 | 1016.9 |
| 20260507125011 | 69 | 101 | 3.0 | 6.0 | 0.00 | 0.00 | 0.00 | 24 | 1016.9 |
| 20260507124511 | 69 | 114 | 4.0 | 6.0 | 0.00 | 0.00 | 0.00 | 23 | 1016.9 |
| 20260507124011 | 69 | 79 | 2.0 | 6.0 | 0.00 | 0.00 | 0.00 | 23 | 1016.9 |
| 20260507123510 | 68 | 94 | 4.0 | 6.0 | 0.00 | 0.00 | 0.00 | 25 | 1016.9 |
| 20260507123010 | 67 | 196 | 0.0 | 3.0 | 0.00 | 0.00 | 0.00 | 24 | 1016.9 |
| 20260507122511 | 67 | 288 | 1.0 | 4.0 | 0.00 | 0.00 | 0.00 | 25 | 1016.9 |
| 20260507121512 | 67 | 6 | 1.0 | 2.0 | 0.00 | 0.00 | 0.00 | 25 | 1016.9 |
| 20260507120511 | 67 | 340 | 0.0 | 2.0 | 0.00 | 0.00 | 0.00 | 26 | 1016.9 |
| 20260507115511 | 68 | 269 | 1.0 | 3.0 | 0.00 | 0.00 | 0.00 | 24 | 1016.9 |
| 20260507115011 | 69 | 278 | 1.0 | 4.0 | 0.00 | 0.00 | 0.00 | 23 | 1016.9 |
| 20260507114511 | 69 | 278 | 1.0 | 4.0 | 0.00 | 0.00 | 0.00 | 23 | 1016.9 |
| 20260507114012 | 69 | 321 | 1.0 | 3.0 | 0.00 | 0.00 | 0.00 | 23 | 1016.9 |
| 20260507113511 | 69 | 296 | 2.0 | 5.0 | 0.00 | 0.00 | 0.00 | 23 | 1016.9 |
| 20260507113011 | 69 | 359 | 1.0 | 5.0 | 0.00 | 0.00 | 0.00 | 24 | 1016.9 |
| 20260507112511 | 69 | 335 | 3.0 | 5.0 | 0.00 | 0.00 | 0.00 | 24 | 1017.0 |
| 20260507111511 | 68 | 310 | 2.0 | 5.0 | 0.00 | 0.00 | 0.00 | 25 | 1017.0 |
| 20260507111011 | 68 | 317 | 3.0 | 6.0 | 0.00 | 0.00 | 0.00 | 24 | 1017.2 |
| 20260507110511 | 68 | 340 | 3.0 | 6.0 | 0.00 | 0.00 | 0.00 | 24 | 1017.2 |
| 20260507110011 | 69 | 318 | 2.0 | 4.0 | 0.00 | 0.00 | 0.00 | 23 | 1017.2 |
| 20260507105511 | 69 | 295 | 3.0 | 3.0 | 0.00 | 0.00 | 0.00 | 23 | 1017.4 |
| 20260507105010 | 70 | 291 | 2.0 | 3.0 | 0.00 | 0.00 | 0.00 | 22 | 1017.4 |
| 20260507104511 | 69 | 269 | 2.0 | 3.0 | 0.00 | 0.00 | 0.00 | 22 | 1017.4 |
| 20260507103511 | 68 | 293 | 1.0 | 4.0 | 0.00 | 0.00 | 0.00 | 23 | 1017.4 |
| 20260507103011 | 68 | 319 | 1.0 | 4.0 | 0.00 | 0.00 | 0.00 | 24 | 1017.4 |
| 20260507102510 | 67 | 295 | 3.0 | 3.0 | 0.00 | 0.00 | 0.00 | 24 | 1017.5 |
| 20260507101512 | 67 | 38 | 1.0 | 4.0 | 0.00 | 0.00 | 0.00 | 24 | 1017.5 |
| 20260507101012 | 67 | 40 | 2.0 | 4.0 | 0.00 | 0.00 | 0.00 | 24 | 1017.6 |
| 20260507100511 | 67 | 275 | 2.0 | 3.0 | 0.00 | 0.00 | 0.00 | 24 | 1017.6 |
| 20260507100011 | 67 | 340 | 1.0 | 3.0 | 0.00 | 0.00 | 0.00 | 24 | 1017.6 |
| 20260507095010 | 67 | 315 | 0.0 | 2.0 | 0.00 | 0.00 | 0.00 | 24 | 1017.7 |
| 20260507094010 | 67 | 335 | 1.0 | 2.0 | 0.00 | 0.00 | 0.00 | 24 | 1017.9 |
| 20260507093511 | 67 | 335 | 0.0 | 2.0 | 0.00 | 0.00 | 0.00 | 24 | 1017.9 |
| 20260507093010 | 67 | 330 | 0.0 | 4.0 | 0.00 | 0.00 | 0.00 | 24 | 1017.9 |
| 20260507092011 | 68 | 30 | 3.0 | 4.0 | 0.00 | 0.00 | 0.00 | 23 | 1017.9 |
| 20260507091513 | 68 | 324 | 1.0 | 4.0 | 0.00 | 0.00 | 0.00 | 23 | 1017.9 |
| 20260507091013 | 69 | 344 | 2.0 | 4.0 | 0.00 | 0.00 | 0.00 | 23 | 1018.1 |
| 20260507090010 | 69 | 335 | 1.0 | 4.0 | 0.00 | 0.00 | 0.00 | 23 | 1018.1 |
| 20260507085510 | 68 | 305 | 3.0 | 5.0 | 0.00 | 0.00 | 0.00 | 23 | 1018.1 |
| 20260507085010 | 68 | 324 | 1.0 | 5.0 | 0.00 | 0.00 | 0.00 | 23 | 1018.1 |
| 20260507084510 | 68 | 307 | 3.0 | 5.0 | 0.00 | 0.00 | 0.00 | 24 | 1018.1 |
| 20260507083510 | 68 | 310 | 0.0 | 3.0 | 0.00 | 0.00 | 0.00 | 24 | 1018.1 |
| 20260507083010 | 68 | 313 | 0.0 | 2.0 | 0.00 | 0.00 | 0.00 | 24 | 1018.1 |
| 20260507082510 | 68 | 335 | 0.0 | 2.0 | 0.00 | 0.00 | 0.00 | 25 | 1018.3 |
| 20260507082011 | 68 | 335 | 0.0 | 2.0 | 0.00 | 0.00 | 0.00 | 25 | 1018.3 |
| 20260507081512 | 68 | 340 | 1.0 | 3.0 | 0.00 | 0.00 | 0.00 | 25 | 1018.3 |
| 20260507081011 | 68 | 330 | 0.0 | 4.0 | 0.00 | 0.00 | 0.00 | 24 | 1018.2 |
| 20260507080511 | 69 | 335 | 2.0 | 4.0 | 0.00 | 0.00 | 0.00 | 24 | 1018.2 |
| 20260507080012 | 69 | 325 | 3.0 | 4.0 | 0.00 | 0.00 | 0.00 | 23 | 1018.2 |
| 20260507075511 | 69 | 335 | 0.0 | 3.0 | 0.00 | 0.00 | 0.00 | 24 | 1018.2 |
| 20260507075011 | 70 | 14 | 2.0 | 3.0 | 0.00 | 0.00 | 0.00 | 23 | 1018.2 |
| 20260507074511 | 71 | 9 | 2.0 | 3.0 | 0.00 | 0.00 | 0.00 | 22 | 1018.2 |
| 20260507074013 | 71 | 359 | 1.0 | 3.0 | 0.00 | 0.00 | 0.00 | 22 | 1018.2 |
| 20260507073011 | 72 | 319 | 1.0 | 3.0 | 0.00 | 0.00 | 0.00 | 21 | 1018.2 |
| 20260507072511 | 73 | 292 | 0.0 | 7.0 | 0.00 | 0.00 | 0.00 | 20 | 1018.2 |
| 20260507071511 | 73 | 283 | 3.0 | 7.0 | 0.00 | 0.00 | 0.00 | 20 | 1018.2 |
| 20260507071011 | 73 | 335 | 1.0 | 6.0 | 0.00 | 0.00 | 0.00 | 20 | 1018.3 |
| 20260507070511 | 73 | 311 | 2.0 | 6.0 | 0.00 | 0.00 | 0.00 | 20 | 1018.3 |
| 20260507070013 | 73 | 292 | 2.0 | 5.0 | 0.00 | 0.00 | 0.00 | 20 | 1018.3 |
| 20260507065012 | 73 | 259 | 1.0 | 5.0 | 0.00 | 0.00 | 0.00 | 20 | 1018.2 |
| 20260507064511 | 73 | 306 | 1.0 | 4.0 | 0.00 | 0.00 | 0.00 | 20 | 1018.2 |
| 20260507064011 | 73 | 279 | 2.0 | 4.0 | 0.00 | 0.00 | 0.00 | 20 | 1018.2 |
| 20260507063511 | 73 | 266 | 2.0 | 6.0 | 0.00 | 0.00 | 0.00 | 20 | 1018.2 |
| 20260507063011 | 72 | 302 | 2.0 | 6.0 | 0.00 | 0.00 | 0.00 | 21 | 1018.2 |
| 20260507062511 | 73 | 325 | 2.0 | 3.0 | 0.00 | 0.00 | 0.00 | 21 | 1018.2 |
| 20260507062011 | 73 | 313 | 2.0 | 3.0 | 0.00 | 0.00 | 0.00 | 21 | 1018.2 |
| 20260507061012 | 73 | 308 | 1.0 | 4.0 | 0.00 | 0.00 | 0.00 | 21 | 1018.2 |
| 20260507060511 | 73 | 289 | 2.0 | 3.0 | 0.00 | 0.00 | 0.00 | 20 | 1018.2 |
| 20260507055513 | 73 | 302 | 1.0 | 4.0 | 0.00 | 0.00 | 0.00 | 22 | 1018.2 |
| 20260507055011 | 73 | 323 | 1.0 | 4.0 | 0.00 | 0.00 | 0.00 | 21 | 1018.2 |
| 20260507054511 | 73 | 293 | 1.0 | 3.0 | 0.00 | 0.00 | 0.00 | 21 | 1018.2 |
| 20260507054011 | 74 | 313 | 1.0 | 4.0 | 0.00 | 0.00 | 0.00 | 21 | 1018.1 |
| 20260507053512 | 74 | 293 | 3.0 | 4.0 | 0.00 | 0.00 | 0.00 | 21 | 1018.1 |
| 20260507053010 | 74 | 315 | 3.0 | 3.0 | 0.00 | 0.00 | 0.00 | 20 | 1018.1 |
| 20260507052510 | 74 | 297 | 2.0 | 4.0 | 0.00 | 0.00 | 0.00 | 20 | 1018.2 |
| 20260507051511 | 74 | 279 | 2.0 | 4.0 | 0.00 | 0.00 | 0.00 | 20 | 1018.2 |
| 20260507050512 | 74 | 295 | 2.0 | 5.0 | 0.00 | 0.00 | 0.00 | 21 | 1018.2 |
| 20260507050010 | 74 | 315 | 2.0 | 4.0 | 0.00 | 0.00 | 0.00 | 21 | 1018.2 |
| 20260507045011 | 75 | 284 | 2.0 | 4.0 | 0.00 | 0.00 | 0.00 | 21 | 1018.2 |
| 20260507044511 | 75 | 275 | 1.0 | 4.0 | 0.00 | 0.00 | 0.00 | 20 | 1018.2 |
| 20260507044011 | 75 | 298 | 2.0 | 6.0 | 0.00 | 0.00 | 0.00 | 21 | 1018.0 |
| 20260507043510 | 75 | 281 | 2.0 | 6.0 | 0.00 | 0.00 | 0.00 | 21 | 1018.0 |
| 20260507043012 | 75 | 284 | 4.0 | 5.0 | 0.00 | 0.00 | 0.00 | 21 | 1018.0 |
| 20260507042010 | 75 | 284 | 3.0 | 6.0 | 0.00 | 0.00 | 0.00 | 21 | 1017.7 |
| 20260507041511 | 75 | 275 | 2.0 | 6.0 | 0.00 | 0.00 | 0.00 | 21 | 1017.7 |
| 20260507041011 | 75 | 286 | 2.0 | 5.0 | 0.00 | 0.00 | 0.00 | 21 | 1017.6 |
| 20260507040511 | 75 | 256 | 3.0 | 4.0 | 0.00 | 0.00 | 0.00 | 21 | 1017.6 |
| 20260507040012 | 75 | 290 | 3.0 | 4.0 | 0.00 | 0.00 | 0.00 | 25 | 1017.6 |
| 20260507035011 | 75 | 286 | 3.0 | 3.0 | 0.00 | 0.00 | 0.00 | 21 | 1017.5 |
| 20260507034511 | 75 | 286 | 2.0 | 3.0 | 0.00 | 0.00 | 0.00 | 21 | 1017.5 |
| 20260507034011 | 75 | 269 | 2.0 | 3.0 | 0.00 | 0.00 | 0.00 | 21 | 1017.2 |
| 20260507033511 | 75 | 267 | 0.0 | 3.0 | 0.00 | 0.00 | 0.00 | 21 | 1017.2 |
| 20260507033012 | 75 | 269 | 2.0 | 2.0 | 0.00 | 0.00 | 0.00 | 21 | 1017.2 |
| 20260507032511 | 76 | 269 | 0.0 | 1.0 | 0.00 | 0.00 | 0.00 | 21 | 1017.1 |
| 20260507032010 | 76 | 269 | 0.0 | 1.0 | 0.00 | 0.00 | 0.00 | 21 | 1017.1 |
| 20260507031511 | 76 | 269 | 0.0 | 2.0 | 0.00 | 0.00 | 0.00 | 20 | 1017.1 |
| 20260507031011 | 76 | 269 | 0.0 | 2.0 | 0.00 | 0.00 | 0.00 | 20 | 1016.9 |
| 20260507030511 | 76 | 263 | 0.0 | 2.0 | 0.00 | 0.00 | 0.00 | 20 | 1016.9 |
| 20260507030012 | 76 | 263 | 0.0 | 1.0 | 0.00 | 0.00 | 0.00 | 20 | 1016.9 |
| 20260507025512 | 77 | 263 | 0.0 | 1.0 | 0.00 | 0.00 | 0.00 | 20 | 1016.6 |
| 20260507025011 | 77 | 263 | 0.0 | 2.0 | 0.00 | 0.00 | 0.00 | 20 | 1016.6 |
| 20260507024510 | 77 | 263 | 0.0 | 2.0 | 0.00 | 0.00 | 0.00 | 19 | 1016.6 |
| 20260507024012 | 77 | 263 | 0.0 | 2.0 | 0.00 | 0.00 | 0.00 | 19 | 1016.5 |
| 20260507023011 | 78 | 263 | 0.0 | 1.0 | 0.00 | 0.00 | 0.00 | 19 | 1016.5 |
| 20260507022511 | 78 | 263 | 0.0 | 2.0 | 0.00 | 0.00 | 0.00 | 18 | 1016.5 |
| 20260507021512 | 78 | 215 | 1.0 | 1.0 | 0.00 | 0.00 | 0.00 | 18 | 1016.5 |
| 20260507021010 | 79 | 184 | 0.0 | 3.0 | 0.00 | 0.00 | 0.00 | 18 | 1016.4 |
| 20260507020511 | 79 | 182 | 1.0 | 4.0 | 0.00 | 0.00 | 0.00 | 18 | 1016.4 |
| 20260507015511 | 79 | 182 | 0.0 | 10.0 | 0.00 | 0.00 | 0.00 | 17 | 1016.3 |
| 20260507015011 | 79 | 204 | 2.0 | 10.0 | 0.00 | 0.00 | 0.00 | 17 | 1016.3 |
| 20260507014511 | 79 | 181 | 1.0 | 6.0 | 0.00 | 0.00 | 0.00 | 18 | 1016.3 |
| 20260507014011 | 79 | 173 | 2.0 | 7.0 | 0.00 | 0.00 | 0.00 | 17 | 1016.1 |
| 20260507013511 | 79 | 165 | 2.0 | 7.0 | 0.00 | 0.00 | 0.00 | 17 | 1016.1 |
| 20260507013011 | 80 | 176 | 2.0 | 5.0 | 0.00 | 0.00 | 0.00 | 17 | 1016.1 |
| 20260507012512 | 80 | 146 | 4.0 | 5.0 | 0.00 | 0.00 | 0.00 | 17 | 1016.1 |
| 20260507012011 | 80 | 186 | 2.0 | 4.0 | 0.00 | 0.00 | 0.00 | 17 | 1016.1 |
| 20260507011512 | 80 | 175 | 2.0 | 5.0 | 0.00 | 0.00 | 0.00 | 17 | 1016.1 |
| 20260507010511 | 80 | 196 | 2.0 | 7.0 | 0.00 | 0.00 | 0.00 | 17 | 1016.1 |
| 20260507010011 | 80 | 197 | 0.0 | 7.0 | 0.00 | 0.00 | 0.00 | 17 | 1016.1 |
| 20260507005511 | 81 | 314 | 3.0 | 9.0 | 0.00 | 0.00 | 0.00 | 17 | 1016.1 |
| 20260507005011 | 81 | 257 | 5.0 | 9.0 | 0.00 | 0.00 | 0.00 | 17 | 1016.1 |
| 20260507004512 | 81 | 229 | 1.0 | 9.0 | 0.00 | 0.00 | 0.00 | 17 | 1016.1 |
| 20260507004011 | 81 | 164 | 6.0 | 9.0 | 0.00 | 0.00 | 0.00 | 16 | 1016.1 |
| 20260507003511 | 81 | 181 | 2.0 | 9.0 | 0.00 | 0.00 | 0.00 | 16 | 1016.1 |
| 20260507003011 | 82 | 241 | 2.0 | 9.0 | 0.00 | 0.00 | 0.00 | 16 | 1016.1 |
| 20260507002512 | 82 | 252 | 3.0 | 5.0 | 0.00 | 0.00 | 0.00 | 16 | 1016.1 |
| 20260507002012 | 82 | 214 | 0.0 | 6.0 | 0.00 | 0.00 | 0.00 | 16 | 1016.1 |
| 20260507001512 | 81 | 201 | 1.0 | 10.0 | 0.00 | 0.00 | 0.00 | 16 | 1016.1 |
| 20260507001011 | 81 | 215 | 2.0 | 10.0 | 0.00 | 0.00 | 0.00 | 16 | 1015.1 |
| 20260507000511 | 81 | 188 | 2.0 | 6.0 | 0.00 | 0.00 | 0.00 | 17 | 1015.1 |
| 20260507000011 | 81 | 155 | 4.0 | 12.0 | 0.00 | 0.00 | 0.00 | 17 | 1015.1 |
| 20260506235511 | 81 | 183 | 2.0 | 12.0 | 0.00 | 0.00 | 0.00 | 17 | 1015.2 |
| 20260506235011 | 81 | 205 | 2.0 | 12.0 | 0.00 | 0.00 | 0.00 | 17 | 1015.2 |
| 20260506234511 | 81 | 161 | 4.0 | 12.0 | 0.00 | 0.00 | 0.00 | 17 | 1015.2 |
| 20260506233512 | 82 | 168 | 1.0 | 7.0 | 0.00 | 0.00 | 0.00 | 17 | 1015.2 |
| 20260506233011 | 82 | 142 | 3.0 | 7.0 | 0.00 | 0.00 | 0.00 | 16 | 1015.2 |
| 20260506232511 | 82 | 236 | 1.0 | 9.0 | 0.00 | 0.00 | 0.00 | 17 | 1015.4 |
| 20260506232011 | 81 | 279 | 4.0 | 9.0 | 0.00 | 0.00 | 0.00 | 16 | 1015.4 |
| 20260506231511 | 81 | 155 | 2.0 | 9.0 | 0.00 | 0.00 | 0.00 | 17 | 1015.4 |
| 20260506231011 | 81 | 244 | 2.0 | 9.0 | 0.00 | 0.00 | 0.00 | 17 | 1015.7 |
| 20260506230511 | 81 | 323 | 3.0 | 7.0 | 0.00 | 0.00 | 0.00 | 17 | 1015.7 |
| 20260506230010 | 82 | 225 | 6.0 | 9.0 | 0.00 | 0.00 | 0.00 | 17 | 1015.7 |
| 20260506225510 | 82 | 171 | 2.0 | 9.0 | 0.00 | 0.00 | 0.00 | 17 | 1015.7 |
| 20260506224511 | 82 | 200 | 3.0 | 10.0 | 0.00 | 0.00 | 0.00 | 17 | 1015.7 |
| 20260506224012 | 81 | 253 | 2.0 | 10.0 | 0.00 | 0.00 | 0.00 | 17 | 1015.9 |
| 20260506223511 | 82 | 275 | 4.0 | 9.0 | 0.00 | 0.00 | 0.00 | 17 | 1015.9 |
| 20260506223011 | 81 | 284 | 7.0 | 8.0 | 0.00 | 0.00 | 0.00 | 17 | 1015.9 |
| 20260506222511 | 80 | 202 | 1.0 | 11.0 | 0.00 | 0.00 | 0.00 | 18 | 1016.1 |
| 20260506222011 | 80 | 103 | 5.0 | 11.0 | 0.00 | 0.00 | 0.00 | 17 | 1016.1 |
| 20260506221512 | 80 | 161 | 7.0 | 11.0 | 0.00 | 0.00 | 0.00 | 17 | 1016.1 |
| 20260506221011 | 80 | 159 | 4.0 | 11.0 | 0.00 | 0.00 | 0.00 | 18 | 1016.3 |
| 20260506220511 | 81 | 261 | 9.0 | 10.0 | 0.00 | 0.00 | 0.00 | 18 | 1016.3 |
| 20260506220012 | 81 | 270 | 2.0 | 10.0 | 0.00 | 0.00 | 0.00 | 17 | 1016.3 |
| 20260506215511 | 80 | 261 | 7.0 | 9.0 | 0.00 | 0.00 | 0.00 | 18 | 1016.6 |
| 20260506215011 | 80 | 139 | 2.0 | 4.0 | 0.00 | 0.00 | 0.00 | 18 | 1016.6 |
| 20260506214511 | 80 | 202 | 3.0 | 6.0 | 0.00 | 0.00 | 0.00 | 18 | 1016.6 |
| 20260506213011 | 80 | 173 | 2.0 | 7.0 | 0.00 | 0.00 | 0.00 | 18 | 1016.8 |
| 20260506212511 | 80 | 209 | 3.0 | 7.0 | 0.00 | 0.00 | 0.00 | 19 | 1017.1 |
| 20260506212011 | 79 | 179 | 1.0 | 11.0 | 0.00 | 0.00 | 0.00 | 19 | 1017.1 |
| 20260506211011 | 79 | 121 | 2.0 | 10.0 | 0.00 | 0.00 | 0.00 | 19 | 1017.4 |
| 20260506210511 | 78 | 167 | 4.0 | 9.0 | 0.00 | 0.00 | 0.00 | 18 | 1017.4 |
| 20260506210011 | 79 | 234 | 4.0 | 7.0 | 0.00 | 0.00 | 0.00 | 18 | 1017.4 |
| 20260506205511 | 79 | 180 | 5.0 | 7.0 | 0.00 | 0.00 | 0.00 | 20 | 1017.6 |
| 20260506204011 | 78 | 165 | 7.0 | 10.0 | 0.00 | 0.00 | 0.00 | 19 | 1017.8 |
| 20260506203511 | 78 | 161 | 6.0 | 10.0 | 0.00 | 0.00 | 0.00 | 19 | 1017.8 |
| 20260506203011 | 77 | 78 | 4.0 | 11.0 | 0.00 | 0.00 | 0.00 | 20 | 1017.8 |
| 20260506202511 | 77 | 148 | 3.0 | 11.0 | 0.00 | 0.00 | 0.00 | 19 | 1018.0 |
| 20260506202011 | 77 | 159 | 6.0 | 9.0 | 0.00 | 0.00 | 0.00 | 19 | 1018.0 |
| 20260506201512 | 77 | 165 | 8.0 | 9.0 | 0.00 | 0.00 | 0.00 | 20 | 1018.0 |
| 20260506201010 | 77 | 273 | 3.0 | 10.0 | 0.00 | 0.00 | 0.00 | 20 | 1018.1 |
| 20260506200510 | 78 | 225 | 4.0 | 10.0 | 0.00 | 0.00 | 0.00 | 19 | 1018.1 |
| 20260506200010 | 77 | 221 | 1.0 | 9.0 | 0.00 | 0.00 | 0.00 | 20 | 1018.1 |
| 20260506195510 | 77 | 255 | 3.0 | 6.0 | 0.00 | 0.00 | 0.00 | 20 | 1018.2 |
| 20260506195011 | 76 | 265 | 3.0 | 6.0 | 0.00 | 0.00 | 0.00 | 20 | 1018.2 |
| 20260506194511 | 76 | 82 | 2.0 | 13.0 | 0.00 | 0.00 | 0.00 | 20 | 1018.2 |
| 20260506194010 | 76 | 126 | 5.0 | 13.0 | 0.00 | 0.00 | 0.00 | 20 | 1018.5 |
| 20260506193511 | 77 | 167 | 5.0 | 11.0 | 0.00 | 0.00 | 0.00 | 20 | 1018.5 |
| 20260506192510 | 76 | 262 | 2.0 | 7.0 | 0.00 | 0.00 | 0.00 | 21 | 1018.5 |
| 20260506192010 | 76 | 144 | 3.0 | 12.0 | 0.00 | 0.00 | 0.00 | 20 | 1018.5 |
| 20260506191510 | 76 | 163 | 2.0 | 12.0 | 0.00 | 0.00 | 0.00 | 21 | 1018.5 |
| 20260506191011 | 76 | 173 | 5.0 | 9.0 | 0.00 | 0.00 | 0.00 | 21 | 1018.6 |
| 20260506190510 | 75 | 252 | 6.0 | 11.0 | 0.00 | 0.00 | 0.00 | 22 | 1018.6 |
| 20260506185011 | 74 | 212 | 2.0 | 10.0 | 0.00 | 0.00 | 0.00 | 23 | 1018.8 |
| 20260506184012 | 74 | 157 | 3.0 | 12.0 | 0.00 | 0.00 | 0.00 | 23 | 1019.0 |
| 20260506183511 | 74 | 262 | 1.0 | 12.0 | 0.00 | 0.00 | 0.00 | 23 | 1019.0 |
| 20260506183011 | 74 | 283 | 10.0 | 8.0 | 0.00 | 0.00 | 0.00 | 24 | 1019.0 |
| 20260506182511 | 74 | 273 | 4.0 | 7.0 | 0.00 | 0.00 | 0.00 | 24 | 1019.2 |
| 20260506181511 | 74 | 241 | 3.0 | 7.0 | 0.00 | 0.00 | 0.00 | 24 | 1019.2 |
| 20260506181011 | 74 | 231 | 2.0 | 9.0 | 0.00 | 0.00 | 0.00 | 24 | 1019.2 |
| 20260506180511 | 73 | 215 | 1.0 | 9.0 | 0.00 | 0.00 | 0.00 | 25 | 1019.2 |
| 20260506180011 | 74 | 150 | 4.0 | 7.0 | 0.00 | 0.00 | 0.00 | 25 | 1019.2 |
| 20260506175511 | 73 | 226 | 3.0 | 7.0 | 0.00 | 0.00 | 0.00 | 26 | 1019.5 |
| 20260506175011 | 73 | 263 | 1.0 | 5.0 | 0.00 | 0.00 | 0.00 | 26 | 1019.5 |
| 20260506174011 | 72 | 232 | 1.0 | 7.0 | 0.00 | 0.00 | 0.00 | 25 | 1019.6 |
| 20260506173511 | 72 | 288 | 5.0 | 6.0 | 0.00 | 0.00 | 0.00 | 26 | 1019.6 |
| 20260506172511 | 71 | 340 | 1.0 | 7.0 | 0.00 | 0.00 | 0.00 | 26 | 1019.5 |
| 20260506171511 | 71 | 238 | 2.0 | 6.0 | 0.00 | 0.00 | 0.00 | 27 | 1019.5 |
| 20260506171011 | 71 | 206 | 1.0 | 5.0 | 0.00 | 0.00 | 0.00 | 27 | 1019.4 |
| 20260506170511 | 70 | 268 | 0.0 | 7.0 | 0.00 | 0.00 | 0.00 | 28 | 1019.4 |
| 20260506170011 | 70 | 287 | 4.0 | 7.0 | 0.00 | 0.00 | 0.00 | 28 | 1019.4 |
| 20260506164511 | 70 | 80 | 5.0 | 9.0 | 0.00 | 0.00 | 0.00 | 31 | 1019.3 |
| 20260506164011 | 70 | 79 | 4.0 | 7.0 | 0.00 | 0.00 | 0.00 | 28 | 1019.3 |
| 20260506163511 | 69 | 132 | 3.0 | 7.0 | 0.00 | 0.00 | 0.00 | 28 | 1019.3 |
| 20260506163011 | 69 | 272 | 4.0 | 7.0 | 0.00 | 0.00 | 0.00 | 28 | 1019.3 |
| 20260506162511 | 69 | 159 | 2.0 | 5.0 | 0.00 | 0.00 | 0.00 | 28 | 1019.2 |
| 20260506162011 | 69 | 261 | 5.0 | 5.0 | 0.00 | 0.00 | 0.00 | 27 | 1019.2 |
| 20260506161511 | 69 | 212 | 1.0 | 5.0 | 0.00 | 0.00 | 0.00 | 28 | 1019.2 |
| 20260506161011 | 68 | 107 | 2.0 | 5.0 | 0.00 | 0.00 | 0.00 | 28 | 1019.2 |
| 20260506160511 | 68 | 165 | 2.0 | 6.0 | 0.00 | 0.00 | 0.00 | 29 | 1019.2 |
| 20260506160011 | 68 | 67 | 3.0 | 6.0 | 0.00 | 0.00 | 0.00 | 29 | 1019.2 |
| 20260506155010 | 68 | 281 | 1.0 | 3.0 | 0.00 | 0.00 | 0.00 | 29 | 1019.2 |
| 20260506154510 | 68 | 219 | 1.0 | 4.0 | 0.00 | 0.00 | 0.00 | 30 | 1019.2 |
| 20260506154010 | 67 | 266 | 0.0 | 4.0 | 0.00 | 0.00 | 0.00 | 29 | 1019.2 |
| 20260506153510 | 67 | 119 | 1.0 | 4.0 | 0.00 | 0.00 | 0.00 | 30 | 1019.2 |
| 20260506153010 | 67 | 107 | 3.0 | 4.0 | 0.00 | 0.00 | 0.00 | 30 | 1019.2 |
| 20260506152510 | 66 | 133 | 3.0 | 4.0 | 0.00 | 0.00 | 0.00 | 32 | 1019.3 |
| 20260506152010 | 66 | 167 | 2.0 | 5.0 | 0.00 | 0.00 | 0.00 | 32 | 1019.3 |
| 20260506151511 | 66 | 252 | 1.0 | 5.0 | 0.00 | 0.00 | 0.00 | 32 | 1019.3 |
| 20260506151011 | 66 | 166 | 3.0 | 5.0 | 0.00 | 0.00 | 0.00 | 33 | 1019.3 |
| 20260506150511 | 66 | 150 | 2.0 | 6.0 | 0.00 | 0.00 | 0.00 | 32 | 1019.3 |
| 20260506145011 | 64 | 119 | 2.0 | 4.0 | 0.00 | 0.00 | 0.00 | 34 | 1019.2 |
| 20260506144513 | 64 | 167 | 2.0 | 4.0 | 0.00 | 0.00 | 0.00 | 34 | 1019.2 |
| 20260506144012 | 64 | 146 | 3.0 | 4.0 | 0.00 | 0.00 | 0.00 | 36 | 1019.2 |
| 20260506143511 | 64 | 93 | 2.0 | 4.0 | 0.00 | 0.00 | 0.00 | 36 | 1019.2 |